Lancaster, CA

8:38 AM PST on February 13, 2016 (GMT -0800)
Gen Fox

Weather History for KWJF - September, 2012

Change the Weather History Date:

Monday, September 10, 2012

  Actual Average Record
Temperature  
Mean Temperature 83 °F 76 °F  
Max Temperature 94 °F 93 °F 107 °F (1948)
Min Temperature 71 °F 59 °F 43 °F (2010)
Degree Days  
Heating Degree Days 0    
Month to date heating degree days 0  
Since 1 July heating degree days 0  
Cooling Degree Days 18    
Month to date cooling degree days 156  
Year to date cooling degree days 1926  
Growing Degree Days 32 (Base 50)    
Moisture  
Dew Point 55 °F    
Average Humidity 45    
Maximum Humidity 61    
Minimum Humidity 28    
Precipitation  
Precipitation 0.00 in 0.00 in 1.12 in (1976)
Month to date precipitation 0.02 0.03  
Year to date precipitation 1.74 5.13  
Since 1 July precipitation 0.04  
Snow  
Snow 0.00 in - 0.00 in ()
Month to date snowfall 0.0  
Since 1 July snowfall 0.0  
Since 1 September snowfall 0.0  
Snow Depth 0.00 in    
Sea Level Pressure  
Sea Level Pressure 29.85 in    
Wind  
Wind Speed 13 mph (SW)    
Max Wind Speed 26 mph    
Max Gust Speed 35 mph    
Visibility 10 miles    
Events      
T = Trace of Precipitation, MM = Missing Value Source: NWS Daily Summary

Daily Weather History Graph

Daily Weather History Graph

Search for Another Location

Airport or City:

Trip Planner

Search our weather history database for the weather conditions in past years. The results will help you decide how hot, cold, wet, or windy it might be!

Date:

Astronomy

Sep. 10, 2012 Rise Set
Actual Time 6:32 AM PDT 7:05 PM PDT
Civil Twilight 6:07 AM PDT 7:31 PM PDT
Nautical Twilight 5:37 AM PDT 8:01 PM PDT
Astronomical Twilight 5:06 AM PDT 8:31 PM PDT
Moon 1:08 AM PDT (9/10) 3:29 PM PDT (9/10)
Length of Visible Light 13h 24m
Length of Day
12h 33m
Waning Crescent, 29% of the Moon is Illuminated
Sep 10
Waning Crescent
Sep 15
New
Sep 22
First Quarter
Sep 29
Full
Oct 8
Last Quarter

Hourly Weather History & Observations

Time (PDT) Temp. Heat Index Dew Point Humidity Pressure Visibility Wind Dir Wind Speed Gust Speed Precip Events Conditions
12:56 AM 82.0 °F - 48.0 °F 30% 29.87 in 10.0 mi SW 9.2 mph - N/A   Clear
1:56 AM 80.1 °F - 48.9 °F 34% 29.86 in 10.0 mi WSW 12.7 mph - N/A   Clear
2:56 AM 77.0 °F - 51.1 °F 40% 29.86 in 10.0 mi West 10.4 mph - N/A   Clear
3:56 AM 75.9 °F - 48.0 °F 37% 29.84 in 10.0 mi West 6.9 mph - N/A   Clear
4:56 AM 75.0 °F - 48.0 °F 38% 29.84 in 10.0 mi West 8.1 mph - N/A   Clear
5:56 AM 73.0 °F - 48.0 °F 41% 29.85 in 10.0 mi Calm Calm - N/A   Clear
6:56 AM 72.0 °F - 48.0 °F 43% 29.87 in 10.0 mi NE 4.6 mph - N/A   Partly Cloudy
7:56 AM 78.1 °F - 55.0 °F 45% 29.89 in 10.0 mi ENE 3.5 mph - N/A   Clear
8:56 AM 84.9 °F 83.2 °F 53.1 °F 33% 29.88 in 10.0 mi Calm Calm - N/A   Clear
9:56 AM 88.0 °F 85.7 °F 53.1 °F 30% 29.88 in 10.0 mi Variable 4.6 mph - N/A   Clear
10:56 AM 91.0 °F 88.7 °F 54.0 °F 28% 29.87 in 10.0 mi WSW 16.1 mph 23.0 mph N/A   Clear
11:56 AM 91.9 °F 90.3 °F 55.9 °F 30% 29.87 in 10.0 mi SSW 16.1 mph 20.7 mph N/A   Clear
12:56 PM 93.9 °F 92.9 °F 57.9 °F 30% 29.85 in 10.0 mi SW 12.7 mph 24.2 mph N/A   Clear
1:56 PM 93.9 °F 92.9 °F 57.9 °F 30% 29.83 in 10.0 mi SW 20.7 mph 28.8 mph N/A   Clear
2:56 PM 93.0 °F 92.3 °F 59.0 °F 32% 29.82 in 10.0 mi SW 23.0 mph 33.4 mph N/A   Clear
3:56 PM 90.0 °F 89.7 °F 60.1 °F 37% 29.81 in 10.0 mi SW 23.0 mph 34.5 mph N/A   Clear
4:56 PM 88.0 °F 87.6 °F 60.1 °F 39% 29.81 in 10.0 mi SW 21.9 mph 34.5 mph N/A   Clear
5:56 PM 86.0 °F 85.7 °F 60.1 °F 41% 29.81 in 10.0 mi SW 20.7 mph 28.8 mph N/A   Clear
6:56 PM 82.0 °F 82.1 °F 59.0 °F 45% 29.81 in 10.0 mi SW 19.6 mph 26.5 mph N/A   Clear
7:56 PM 80.1 °F 81.1 °F 61.0 °F 52% 29.82 in 10.0 mi SW 16.1 mph 27.6 mph N/A   Clear
9:56 PM 75.9 °F - 60.1 °F 58% 29.85 in 10.0 mi SW 16.1 mph - N/A   Clear
10:56 PM 75.0 °F - 60.1 °F 60% 29.86 in 10.0 mi SW 11.5 mph - N/A   Clear
11:56 PM 73.9 °F - 59.0 °F 59% 29.85 in 10.0 mi WSW 16.1 mph - N/A   Clear